Location: Bieg
(49.3499°N, 10.3835°E)
Time: 22:30:19
(UTC+00:00)

Cosmos 2082 Rocket - Pass Details

Date: 23 May 2024
Orbit: 832 x 853 km, 71.0° (Epoch: 14 June)

Event Time Altitude Azimuth Distance (km) Brightness Sun altitude
Exits shadow 01:48:51 - 256° (WSW) 2,618 4.3 -12.1°
Reaches altitude 10° 01:49:17 10° 258° (WSW) 2,484 4.2 -12.1°
Maximum altitude 01:54:06 27° 316° (NW) 1,579 3.7 -11.6°
Drops below altitude 10° 01:58:56 10° 13° (NNE) 2,492 5.8 -11.1°
Sets 02:01:47 0° 26° (NNE) 3,430 7.2 -10.8°
